Lone Star Executive Airport Houston US
ICAO: KCXO
IATA: CXO
Category: Medium
Scheduled Services: No

Elevation: 245 ft
TransAlt. 18000 ft.

Airport Communications:
HOUSTON APP/DEP:119.7
ASOS:118.325
CLNC DEL:119.55
RDO:122.2
CTAF/UNICOM:122.95

KCXO Zoom In..

If you have problems with the map follow the link
https://www.worldairports.se/pages/airport.php?
ICAO=KCXO

Runways:

(A) RW 01 length 5000 ft width 100 ft
---- / hdg 12

(B) RW 14 length 6000 ft width 150 ft
ILS 108.70 / hdg 140

(C) RW 19 length 5000 ft width 100 ft
---- / hdg 192

(D) RW 32 length 6000 ft width 150 ft
---- / hdg 320

Location; KCXO
Day. 26 / Time. 18.53 Zulu
* Altimeter: 30.07
* Temperature: 32° c. 89.6°f.
* Wind from: 130° Speed 09 kn.
Dewpoint: 21° c.
Visibility: 10 Statute Miles.
Clouds: Few 4300 ft.
Clouds: Scattered 5500 ft.

KCXO 261853Z 13009KT 10SM FEW043 SCT055 32/21 A3007 RMK AO2 SLP178 T03220211


Wind From 130°
Speed 09 kn.

 
 
jpsmedia.com for Web Design worldairports.se 2019   terms of use